Regional Weather Roundup
Issued by NWS

Home | Current Version | Previous Version | Text Only | Print | Product List | Glossary On
Versions: 1 2 3 4 5 6 7 8 9 10 11 12 13 14 15 16 17 18 19 20 21 22 23 24 25 26 27 28 29 30 31 32 33 34 35 36 37 38 39 40 41 42 43 44 45 46 47 48 49 50
000
ASUS43 KTOP 120959
RWRKS

WEATHER ROUNDUP FOR KANSAS
NATIONAL WEATHER SERVICE GOODLAND KS
500 AM CDT SAT JUL 12 2014

NOTE:  "FAIR" INDICATES FEW OR NO CLOUDS BELOW 12,000 FEET WITH NO
SIGNIFICANT WEATHER AND/OR OBSTRUCTIONS TO VISIBILITY.

KSZ001>006-013>018-027>032-041>047-121100-
NORTHWEST KANSAS

CITY           SKY/WX    TMP DP  RH WIND       PRES   REMARKS
GOODLAND       MOCLDY    66  61  84 NW9       30.09R
HAYS           PTCLDY    72  55  56 S6        30.03R
HILL CITY      MOCLDY    72  59  63 SW7       30.00F
RUSSELL        PTCLDY    71  63  75 S12       30.01S
$$

KSZ061>065-074>080-084>089-121100-
SOUTHWEST KANSAS

CITY           SKY/WX    TMP DP  RH WIND       PRES   REMARKS
DODGE CITY     CLEAR     70  60  70 S8        30.06S
ELKHART          N/A     71  57  61 S9          N/A
GARDEN CITY    PTCLDY    67  59  75 S6        30.07R
GREAT BEND     PTCLDY    72  63  73 SW7       30.03R
LIBERAL        CLEAR     72  57  60 S10       30.11R
$$

KSZ066>073-081>083-090>101-121100-
SOUTHEAST KANSAS

CITY           SKY/WX    TMP DP  RH WIND       PRES   REMARKS
CHANUTE        CLEAR     74  68  81 S10       30.09R
COFFEYVILLE    CLEAR     74  69  85 S9        30.08S HAZE
HUTCHINSON     CLEAR     73  63  70 S8        30.04F
MEDICINE LODGE   N/A     72  64  76 S8        30.05F
NEWTON         CLEAR     75  57  53 S12       30.09R
PARSONS        CLEAR     73  67  81 S3        30.10R
WICHITA INTL   CLEAR     74  62  66 S13       30.05S
WICHITA JABRA  CLEAR     77  63  61 S16       30.05F
WINFIELD       CLEAR     75  64  68 S10       30.09R
$$

KSZ007>012-019>026-033>040-048>060-102>105-121100-
NORTHEAST KANSAS

CITY           SKY/WX    TMP DP  RH WIND       PRES   REMARKS
CONCORDIA      MOCLDY    75  63  66 S14       30.00S
EMPORIA        CLEAR     70  66  87 S9        30.06R
LAWRENCE       CLEAR     71  67  87 SE3       30.05R
MANHATTAN      PTCLDY    77  63  61 SW13      30.02R
OLATHE IND     CLEAR     70  67  90 S3        30.07R
OLATHE EXE     CLEAR     72  68  87 S5        30.07R
SALINA         PTCLDY    74  63  68 S8        30.02S
TOPEKA BILLARD PTCLDY    79  67  66 S6        30.04S
TOPEKA FORBES  PTCLDY    74  66  76 S6        30.05R
$$



USA.gov is the U.S. government's official web portal to all federal, state and local government web resources and services.